EWG6E EDDK-LFPG

Flight info

Callsign EWG6E
Flight time 0h 58m
Altitude 32000
Route NVO3F/13L NVO M170 LNO N852 DIK Y180 TILVI Q763 RAPOR Z157 VEDUS
Aircraft A319/M-SDE3FGHIRWY/LB1

Departure

Time 2026-05-08 19:28
Airport Cologne Bonn Airport (EDDK)

Arrival

Time 2026-05-08 20:27
Airport Charles de Gaulle International Airport (LFPG)
Time Latitude Longitude Altitude Speed Heading
2026-05-08 19:24 50.87769 7.12540 230 ft 0 kts 19°
2026-05-08 19:26 50.87770 7.12540 230 ft 1 kts 19°
2026-05-08 19:26 50.87788 7.12554 231 ft 5 kts 27°
2026-05-08 19:26 50.87833 7.12582 230 ft 9 kts 18°
2026-05-08 19:26 50.87905 7.12620 230 ft 13 kts 19°
2026-05-08 19:27 50.87982 7.12716 233 ft 15 kts 55°
2026-05-08 19:27 50.88008 7.12884 237 ft 18 kts 94°
2026-05-08 19:27 50.87921 7.13091 242 ft 32 kts 137°
2026-05-08 19:27 50.87639 7.13501 248 ft 83 kts 137°
2026-05-08 19:28 50.87076 7.14316 258 ft 135 kts 137°
2026-05-08 19:28 50.86296 7.15447 530 ft 154 kts 136°
2026-05-08 19:28 50.85505 7.16563 1121 ft 154 kts 137°
2026-05-08 19:28 50.84690 7.17708 1591 ft 163 kts 137°
2026-05-08 19:29 50.83789 7.18969 1917 ft 183 kts 137°
2026-05-08 19:29 50.82794 7.20355 2293 ft 202 kts 138°
2026-05-08 19:29 50.81663 7.21928 2598 ft 232 kts 138°
2026-05-08 19:29 50.80375 7.23714 3051 ft 259 kts 138°
2026-05-08 19:30 50.78928 7.25600 3746 ft 275 kts 147°
2026-05-08 19:30 50.77128 7.26450 4641 ft 272 kts 180°
2026-05-08 19:30 50.75355 7.25538 5598 ft 273 kts 217°
2026-05-08 19:30 50.74217 7.23198 6629 ft 272 kts 250°
2026-05-08 19:31 50.74043 7.20263 7565 ft 274 kts 282°
2026-05-08 19:31 50.74720 7.17442 8504 ft 276 kts 294°
2026-05-08 19:31 50.75475 7.14636 9430 ft 279 kts 291°
2026-05-08 19:31 50.76046 7.11686 10289 ft 284 kts 283°
2026-05-08 19:32 50.76475 7.08527 10642 ft 306 kts 280°
2026-05-08 19:32 50.76871 7.05090 10865 ft 330 kts 279°
2026-05-08 19:32 50.77289 7.01405 11034 ft 352 kts 279°
2026-05-08 19:32 50.77753 6.97517 11427 ft 365 kts 280°
2026-05-08 19:33 50.78254 6.93554 12046 ft 370 kts 281°
2026-05-08 19:33 50.78781 6.89550 12696 ft 374 kts 281°
2026-05-08 19:33 50.79328 6.85505 13341 ft 379 kts 281°
2026-05-08 19:33 50.79884 6.81416 13985 ft 383 kts 281°
2026-05-08 19:34 50.80441 6.77335 14563 ft 386 kts 281°
2026-05-08 19:34 50.81006 6.73166 15163 ft 390 kts 281°
2026-05-08 19:34 50.81531 6.68947 15766 ft 393 kts 277°
2026-05-08 19:34 50.81644 6.64621 16369 ft 395 kts 266°
2026-05-08 19:35 50.81246 6.60255 16987 ft 398 kts 256°
2026-05-08 19:35 50.80385 6.56146 17560 ft 401 kts 248°
2026-05-08 19:35 50.79347 6.52039 18174 ft 404 kts 248°
2026-05-08 19:35 50.78303 6.47902 18708 ft 407 kts 248°
2026-05-08 19:36 50.77251 6.43732 19206 ft 410 kts 248°
2026-05-08 19:36 50.76194 6.39532 19697 ft 413 kts 248°
2026-05-08 19:36 50.75129 6.35299 20186 ft 416 kts 248°
2026-05-08 19:36 50.74054 6.31042 20662 ft 419 kts 248°
2026-05-08 19:37 50.72965 6.26759 21125 ft 422 kts 248°
2026-05-08 19:37 50.71865 6.22451 21571 ft 425 kts 248°
2026-05-08 19:37 50.70751 6.18123 22012 ft 427 kts 248°
2026-05-08 19:37 50.69625 6.13769 22442 ft 430 kts 248°
2026-05-08 19:38 50.68492 6.09391 22856 ft 432 kts 248°
2026-05-08 19:38 50.67359 6.04988 23263 ft 435 kts 248°
2026-05-08 19:38 50.66218 6.00545 23629 ft 439 kts 248°
2026-05-08 19:38 50.65069 5.96077 23962 ft 441 kts 249°
2026-05-08 19:39 50.63911 5.91584 24305 ft 444 kts 249°
2026-05-08 19:39 50.62742 5.87071 24629 ft 447 kts 247°
2026-05-08 19:39 50.61181 5.82834 24944 ft 451 kts 232°
2026-05-08 19:39 50.58928 5.79391 25254 ft 455 kts 216°
2026-05-08 19:40 50.56133 5.77049 25554 ft 459 kts 200°
2026-05-08 19:40 50.53005 5.76009 25854 ft 463 kts 184°
2026-05-08 19:40 50.49789 5.76368 26149 ft 466 kts 167°
2026-05-08 19:40 50.46703 5.77954 26431 ft 469 kts 159°
2026-05-08 19:41 50.43639 5.79760 26728 ft 471 kts 159°
2026-05-08 19:41 50.40565 5.81579 27008 ft 474 kts 159°
2026-05-08 19:41 50.37473 5.83402 27283 ft 476 kts 159°
2026-05-08 19:41 50.34360 5.85222 27533 ft 479 kts 159°
2026-05-08 19:42 50.31233 5.87037 27865 ft 479 kts 159°
2026-05-08 19:42 50.28106 5.88844 28254 ft 479 kts 160°
2026-05-08 19:42 50.24980 5.90648 28664 ft 479 kts 160°
2026-05-08 19:42 50.21859 5.92450 29071 ft 478 kts 160°
2026-05-08 19:43 50.18741 5.94253 29482 ft 478 kts 160°
2026-05-08 19:43 50.15621 5.96055 29893 ft 478 kts 160°
2026-05-08 19:43 50.12509 5.97847 30390 ft 475 kts 160°
2026-05-08 19:43 50.09085 5.99814 30850 ft 473 kts 160°
2026-05-08 19:44 50.06332 6.01394 31180 ft 472 kts 160°
2026-05-08 19:44 50.03249 6.03163 31523 ft 473 kts 160°
2026-05-08 19:44 50.00161 6.04934 31840 ft 473 kts 160°
2026-05-08 19:44 49.97070 6.06706 32171 ft 474 kts 160°
2026-05-08 19:45 49.93931 6.08247 32495 ft 473 kts 171°
2026-05-08 19:45 49.90519 6.08455 32833 ft 470 kts 188°
2026-05-08 19:45 49.87487 6.07430 33155 ft 466 kts 201°
2026-05-08 19:45 49.84536 6.05410 33489 ft 462 kts 212°
2026-05-08 19:46 49.81915 6.02580 33858 ft 458 kts 224°
2026-05-08 19:46 49.79726 5.99037 34073 ft 453 kts 235°
2026-05-08 19:46 49.76046 5.91145 34107 ft 454 kts 237°
2026-05-08 19:47 49.72392 5.83168 34102 ft 456 kts 238°
2026-05-08 19:47 49.68698 5.75178 34101 ft 457 kts 238°
2026-05-08 19:48 49.64687 5.67544 34087 ft 463 kts 225°
2026-05-08 19:48 49.62212 5.64331 33757 ft 466 kts 223°
2026-05-08 19:48 49.59712 5.61157 33343 ft 466 kts 223°
2026-05-08 19:49 49.57204 5.58000 32943 ft 466 kts 223°
2026-05-08 19:49 49.54692 5.54831 32549 ft 467 kts 223°
2026-05-08 19:49 49.52192 5.51665 32157 ft 462 kts 223°
2026-05-08 19:49 49.49731 5.48545 31774 ft 455 kts 223°
2026-05-08 19:50 49.47445 5.45260 31394 ft 445 kts 234°
2026-05-08 19:50 49.45872 5.41259 31010 ft 433 kts 252°
2026-05-08 19:50 49.45181 5.36883 30648 ft 424 kts 269°
2026-05-08 19:50 49.45397 5.32443 30263 ft 412 kts 288°
2026-05-08 19:51 49.46491 5.28453 29851 ft 403 kts 305°
2026-05-08 19:51 49.48219 5.25100 29427 ft 400 kts 313°
2026-05-08 19:51 49.50050 5.21889 29096 ft 399 kts 313°
2026-05-08 19:51 49.51886 5.18694 29094 ft 399 kts 313°
2026-05-08 19:52 49.55599 5.12242 29097 ft 400 kts 313°
2026-05-08 19:52 49.59266 5.05870 29100 ft 400 kts 313°
2026-05-08 19:53 49.62946 4.99468 28803 ft 396 kts 313°
2026-05-08 19:53 49.64769 4.96297 28177 ft 395 kts 313°
2026-05-08 19:53 49.66582 4.93116 27536 ft 394 kts 313°
2026-05-08 19:54 49.68359 4.89933 27010 ft 390 kts 313°
2026-05-08 19:54 49.70125 4.86774 26438 ft 388 kts 313°
2026-05-08 19:54 49.71890 4.83639 25854 ft 386 kts 313°
2026-05-08 19:54 49.73660 4.80516 25283 ft 386 kts 313°
2026-05-08 19:55 49.75435 4.77407 24730 ft 385 kts 313°
2026-05-08 19:55 49.77213 4.74313 24257 ft 385 kts 313°
2026-05-08 19:55 49.79000 4.71212 24092 ft 387 kts 311°
2026-05-08 19:55 49.80459 4.67715 24102 ft 390 kts 295°
2026-05-08 19:56 49.81178 4.63660 24109 ft 393 kts 277°
2026-05-08 19:56 49.81047 4.59437 24108 ft 396 kts 258°
2026-05-08 19:56 49.80064 4.55443 24109 ft 399 kts 244°
2026-05-08 19:56 49.78773 4.51635 24108 ft 400 kts 243°
2026-05-08 19:57 49.77471 4.47826 24101 ft 402 kts 244°
2026-05-08 19:57 49.76163 4.44000 24103 ft 403 kts 244°
2026-05-08 19:57 49.74856 4.40170 24103 ft 403 kts 244°
2026-05-08 19:57 49.73550 4.36335 24103 ft 403 kts 244°
2026-05-08 19:58 49.72244 4.32498 24106 ft 403 kts 244°
2026-05-08 19:58 49.70936 4.28664 24101 ft 403 kts 244°
2026-05-08 19:58 49.69628 4.24837 24101 ft 403 kts 244°
2026-05-08 19:58 49.68318 4.21010 24101 ft 403 kts 244°
2026-05-08 19:59 49.67007 4.17181 24098 ft 403 kts 245°
2026-05-08 19:59 49.65695 4.13364 24094 ft 402 kts 244°
2026-05-08 19:59 49.64381 4.09554 24095 ft 402 kts 244°
2026-05-08 19:59 49.63075 4.05768 23760 ft 398 kts 244°
2026-05-08 20:00 49.61777 4.02004 23267 ft 396 kts 244°
2026-05-08 20:00 49.60487 3.98264 22784 ft 393 kts 244°
2026-05-08 20:00 49.59223 3.94611 22305 ft 390 kts 244°
2026-05-08 20:00 49.57934 3.90893 21818 ft 386 kts 243°
2026-05-08 20:01 49.56690 3.87310 21343 ft 383 kts 243°
2026-05-08 20:01 49.55435 3.83657 20852 ft 379 kts 243°
2026-05-08 20:01 49.54201 3.80090 20369 ft 376 kts 243°
2026-05-08 20:01 49.53385 3.77748 20054 ft 374 kts 243°
2026-05-08 20:02 49.52161 3.74244 19572 ft 370 kts 243°
2026-05-08 20:02 49.50946 3.70772 19100 ft 366 kts 242°
2026-05-08 20:02 49.48216 3.62986 18016 ft 358 kts 241°
2026-05-08 20:03 49.47048 3.59672 17484 ft 355 kts 241°
2026-05-08 20:03 49.45867 3.56316 16953 ft 352 kts 242°
2026-05-08 20:03 49.44712 3.53025 16439 ft 348 kts 242°
2026-05-08 20:03 49.43583 3.49805 15943 ft 345 kts 242°
2026-05-08 20:04 49.42449 3.46572 15443 ft 343 kts 242°
2026-05-08 20:04 49.41453 3.43268 15126 ft 341 kts 248°
2026-05-08 20:04 49.40562 3.39894 15075 ft 341 kts 248°
2026-05-08 20:04 49.39659 3.36520 15084 ft 342 kts 247°
2026-05-08 20:05 49.38749 3.33149 15084 ft 342 kts 247°
2026-05-08 20:05 49.37839 3.29782 15084 ft 342 kts 247°
2026-05-08 20:05 49.36928 3.26409 15084 ft 342 kts 247°
2026-05-08 20:05 49.36020 3.23042 15084 ft 342 kts 247°
2026-05-08 20:06 49.35111 3.19676 15084 ft 342 kts 247°
2026-05-08 20:06 49.34201 3.16307 15084 ft 342 kts 247°
2026-05-08 20:06 49.33293 3.12940 15084 ft 342 kts 247°
2026-05-08 20:06 49.32387 3.09579 15085 ft 342 kts 247°
2026-05-08 20:07 49.31479 3.06209 15085 ft 342 kts 247°
2026-05-08 20:07 49.30570 3.02846 15081 ft 342 kts 247°
2026-05-08 20:07 49.29657 2.99481 15082 ft 342 kts 247°
2026-05-08 20:07 49.28744 2.96120 15081 ft 342 kts 247°
2026-05-08 20:08 49.27831 2.92758 15084 ft 342 kts 247°
2026-05-08 20:08 49.26915 2.89402 15084 ft 342 kts 247°
2026-05-08 20:08 49.25998 2.86056 15083 ft 340 kts 247°
2026-05-08 20:08 49.25082 2.82721 15084 ft 339 kts 247°
2026-05-08 20:09 49.24170 2.79392 15085 ft 339 kts 247°
2026-05-08 20:09 49.23258 2.76065 15084 ft 339 kts 247°
2026-05-08 20:09 49.22346 2.72738 15081 ft 339 kts 247°
2026-05-08 20:09 49.21434 2.69413 15083 ft 339 kts 247°
2026-05-08 20:10 49.20518 2.66089 15082 ft 339 kts 247°
2026-05-08 20:10 49.19911 2.63891 15085 ft 339 kts 247°
2026-05-08 20:10 49.18992 2.60569 15083 ft 339 kts 247°
2026-05-08 20:10 49.18214 2.57174 15078 ft 339 kts 258°
2026-05-08 20:11 49.18017 2.53581 15084 ft 340 kts 268°
2026-05-08 20:11 49.17944 2.49975 15082 ft 340 kts 268°
2026-05-08 20:11 49.17868 2.46363 15082 ft 340 kts 268°
2026-05-08 20:11 49.17791 2.42755 15083 ft 340 kts 268°
2026-05-08 20:12 49.17744 2.39144 15081 ft 340 kts 272°
2026-05-08 20:12 49.18278 2.35657 14829 ft 338 kts 293°
2026-05-08 20:12 49.19601 2.32701 14342 ft 338 kts 310°
2026-05-08 20:12 49.21201 2.30075 13848 ft 337 kts 312°
2026-05-08 20:13 49.22813 2.27482 13312 ft 335 kts 312°
2026-05-08 20:13 49.24410 2.24916 12802 ft 332 kts 312°
2026-05-08 20:13 49.25777 2.22117 12312 ft 326 kts 294°
2026-05-08 20:13 49.26331 2.18800 11826 ft 322 kts 271°
2026-05-08 20:14 49.25967 2.15458 11332 ft 319 kts 248°
2026-05-08 20:14 49.24886 2.12506 10828 ft 318 kts 238°
2026-05-08 20:14 49.23678 2.09671 10337 ft 317 kts 237°
2026-05-08 20:14 49.22464 2.06861 9856 ft 316 kts 237°
2026-05-08 20:15 49.21253 2.04079 9360 ft 313 kts 237°
2026-05-08 20:15 49.20056 2.01314 8865 ft 311 kts 237°
2026-05-08 20:15 49.18872 1.98559 8367 ft 309 kts 237°
2026-05-08 20:15 49.17699 1.95816 7902 ft 307 kts 237°
2026-05-08 20:16 49.16542 1.93091 7448 ft 305 kts 237°
2026-05-08 20:16 49.15398 1.90378 6984 ft 303 kts 237°
2026-05-08 20:16 49.14267 1.87679 6532 ft 301 kts 236°
2026-05-08 20:16 49.12853 1.85365 6044 ft 298 kts 213°
2026-05-08 20:17 49.10953 1.84212 5569 ft 295 kts 187°
2026-05-08 20:17 49.08937 1.84446 5108 ft 291 kts 161°
2026-05-08 20:17 49.07202 1.85898 4646 ft 289 kts 143°
2026-05-08 20:17 49.05598 1.87703 4392 ft 281 kts 142°
2026-05-08 20:18 49.04065 1.89448 4258 ft 269 kts 142°
2026-05-08 20:18 49.02595 1.91112 4126 ft 255 kts 141°
2026-05-08 20:18 49.01525 1.93075 4010 ft 233 kts 112°
2026-05-08 20:18 49.01078 1.95315 4011 ft 212 kts 103°
2026-05-08 20:19 49.00748 1.97459 4009 ft 206 kts 102°
2026-05-08 20:19 49.00434 1.99574 4010 ft 205 kts 102°
2026-05-08 20:19 49.00121 2.01689 4010 ft 204 kts 102°
2026-05-08 20:19 48.99886 2.03819 4010 ft 204 kts 93°
2026-05-08 20:20 48.99888 2.05981 4010 ft 205 kts 87°
2026-05-08 20:20 48.99988 2.08146 4010 ft 205 kts 85°
2026-05-08 20:20 49.00110 2.10306 4009 ft 205 kts 85°
2026-05-08 20:20 49.00235 2.12465 4008 ft 205 kts 85°
2026-05-08 20:21 49.00359 2.14624 4007 ft 205 kts 85°
2026-05-08 20:21 49.00483 2.16787 4009 ft 205 kts 85°
2026-05-08 20:21 49.00606 2.18939 4005 ft 200 kts 85°
2026-05-08 20:21 49.00721 2.20966 4004 ft 187 kts 85°
2026-05-08 20:22 49.00832 2.22923 4031 ft 185 kts 85°
2026-05-08 20:22 49.00943 2.24872 3905 ft 185 kts 85°
2026-05-08 20:22 49.01052 2.26814 3683 ft 183 kts 85°
2026-05-08 20:22 49.01161 2.28734 3466 ft 182 kts 85°
2026-05-08 20:23 49.01268 2.30648 3230 ft 181 kts 85°
2026-05-08 20:23 49.01375 2.32552 2988 ft 180 kts 85°
2026-05-08 20:23 49.01481 2.34451 2748 ft 179 kts 85°
2026-05-08 20:23 49.01586 2.36337 2507 ft 178 kts 85°
2026-05-08 20:24 49.01689 2.38203 2272 ft 176 kts 84°
2026-05-08 20:24 49.01788 2.39993 2036 ft 163 kts 84°
2026-05-08 20:24 49.01880 2.41669 1841 ft 156 kts 84°
2026-05-08 20:24 49.01970 2.43298 1625 ft 153 kts 85°
2026-05-08 20:25 49.02058 2.44908 1417 ft 149 kts 85°
2026-05-08 20:25 49.02139 2.46385 1219 ft 132 kts 84°
2026-05-08 20:25 49.02214 2.47758 1037 ft 129 kts 83°
2026-05-08 20:25 49.02290 2.49115 858 ft 128 kts 83°
2026-05-08 20:26 49.02371 2.50467 666 ft 129 kts 82°
2026-05-08 20:26 49.02441 2.51820 490 ft 128 kts 83°
2026-05-08 20:26 49.02510 2.53159 365 ft 122 kts 83°
2026-05-08 20:26 49.02562 2.54124 354 ft 50 kts 85°
2026-05-08 20:27 49.02558 2.54488 351 ft 35 kts 100°
2026-05-08 20:27 49.02506 2.54785 360 ft 16 kts 105°
2026-05-08 20:27 49.02485 2.54901 354 ft 12 kts 105°
2026-05-08 20:27 49.02461 2.55035 357 ft 11 kts 104°
2026-05-08 20:28 49.02445 2.55159 354 ft 13 kts 90°
2026-05-08 20:28 49.02451 2.55267 363 ft 11 kts 85°
2026-05-08 20:28 49.02459 2.55395 354 ft 14 kts 84°
2026-05-08 20:28 49.02457 2.55552 354 ft 16 kts 107°
2026-05-08 20:29 49.02354 2.55621 355 ft 18 kts 176°
2026-05-08 20:29 49.02220 2.55637 354 ft 19 kts 175°
2026-05-08 20:29 49.02094 2.55624 356 ft 19 kts 217°
2026-05-08 20:29 49.02062 2.55478 356 ft 11 kts 264°
2026-05-08 20:30 49.02054 2.55339 354 ft 15 kts 265°
2026-05-08 20:30 49.02046 2.55191 361 ft 12 kts 265°
2026-05-08 20:30 49.02044 2.55141 354 ft 0 kts 265°
2026-05-08 20:30 49.02044 2.55139 354 ft 1 kts 265°
2026-05-08 20:31 49.02041 2.55085 354 ft 10 kts 265°
2026-05-08 20:31 49.02031 2.54927 363 ft 20 kts 265°
2026-05-08 20:31 49.02017 2.54687 359 ft 26 kts 266°
2026-05-08 20:31 49.02005 2.54386 359 ft 28 kts 266°
2026-05-08 20:32 49.01959 2.54155 357 ft 22 kts 216°
2026-05-08 20:32 49.01821 2.54172 355 ft 21 kts 124°
2026-05-08 20:32 49.01780 2.54416 357 ft 27 kts 115°
2026-05-08 20:32 49.01644 2.54660 356 ft 34 kts 147°
2026-05-08 20:33 49.01418 2.54746 354 ft 35 kts 184°
2026-05-08 20:33 49.01268 2.54682 361 ft 16 kts 209°
2026-05-08 20:33 49.01209 2.54525 357 ft 14 kts 265°
2026-05-08 20:33 49.01219 2.54376 357 ft 18 kts 298°
2026-05-08 20:34 49.01357 2.54338 350 ft 25 kts 22°
2026-05-08 20:34 49.01454 2.54407 358 ft 11 kts 77°
2026-05-08 20:34 49.01452 2.54483 356 ft 0 kts 89°